When you browse on this site, cookies collect data to enhance your experience and personalize the content and advertising you see.
Visit our Privacy Policy to learn more. By continuing to use the site, you agree to this use of cookies and data.
  • In Hungary
  • List of Countries
  • For 7 days
  • Water Temperature
  • Weather Map
  • News
  • Weather Widgets
  • user-avatar
    Login

    Hourly Weather Nevyts'ke

    Today, 11 December, Wednesday

    Time Temperature Precipitation Wind Pressure Humidity
    00:00 0°C° 0 mm 3 mps 749 mmHg 81%
    01:00 0°C° 0 mm 3 mps 749 mmHg 82%
    02:00 0°C° 0 mm 3 mps 749 mmHg 83%
    03:00 0°C° 0 mm 3 mps 749 mmHg 84%
    04:00 0°C° 0 mm 3 mps 749 mmHg 85%
    05:00 +1°C° 0.1 mm 2 mps 749 mmHg 86%
    06:00 +1°C° 0.1 mm 2 mps 748 mmHg 86%
    07:00 +1°C° 0.1 mm 2 mps 748 mmHg 87%
    08:00 +1°C° 0.1 mm 2 mps 748 mmHg 86%
    09:00 +2°C° 0.1 mm 2 mps 748 mmHg 85%
    10:00 +3°C° 0.1 mm 1 mps 747 mmHg 84%
    11:00 +3°C° 0.1 mm 1 mps 747 mmHg 85%
    12:00 +3°C° 0.1 mm 1 mps 746 mmHg 86%
    13:00 +3°C° 0.1 mm 1 mps 746 mmHg 87%
    14:00 +3°C° 0.2 mm 1 mps 745 mmHg 89%
    15:00 +3°C° 0.2 mm 1 mps 745 mmHg 91%
    16:00 +3°C° 0.2 mm 1 mps 744 mmHg 93%
    17:00 +4°C° 0.2 mm 1 mps 744 mmHg 94%
    18:00 +4°C° 0.2 mm 1 mps 744 mmHg 94%
    19:00 +4°C° 0.2 mm 1 mps 744 mmHg 95%
    20:00 +4°C° 0.4 mm 1 mps 744 mmHg 96%
    21:00 +4°C° 0.4 mm 1 mps 743 mmHg 97%
    22:00 +4°C° 0.4 mm 1 mps 743 mmHg 97%
    23:00 +4°C° 0.3 mm 1 mps 743 mmHg 97%

    Tomorrow, 12 December, Thursday

    Time Temperature Precipitation Wind Pressure Humidity
    00:00 +4°C° 0.3 mm 1 mps 743 mmHg 98%
    01:00 +4°C° 0.3 mm 1 mps 742 mmHg 98%
    02:00 +4°C° 0 mm 1 mps 742 mmHg 98%
    03:00 +4°C° 0 mm 1 mps 741 mmHg 97%
    04:00 +4°C° 0 mm 1 mps 741 mmHg 97%
    05:00 +4°C° 0 mm 1 mps 741 mmHg 96%
    06:00 +4°C° 0 mm 1 mps 741 mmHg 95%
    07:00 +4°C° 0 mm 1 mps 741 mmHg 94%
    08:00 +5°C° 0 mm 1 mps 740 mmHg 92%
    09:00 +6°C° 0 mm 1 mps 740 mmHg 89%
    10:00 +6°C° 0 mm 1 mps 740 mmHg 86%
    11:00 +7°C° 0 mm 1 mps 739 mmHg 83%
    12:00 +7°C° 0 mm 1 mps 739 mmHg 81%
    13:00 +8°C° 0 mm 1 mps 739 mmHg 78%
    14:00 +7°C° 0 mm 1 mps 738 mmHg 80%
    15:00 +6°C° 0 mm 1 mps 738 mmHg 82%
    16:00 +6°C° 0 mm 1 mps 737 mmHg 84%
    17:00 +6°C° 0 mm 1 mps 737 mmHg 84%
    18:00 +6°C° 0 mm 1 mps 737 mmHg 83%
    19:00 +6°C° 0 mm 1 mps 737 mmHg 83%
    20:00 +5°C° 0.2 mm 2 mps 737 mmHg 84%
    21:00 +5°C° 0.2 mm 2 mps 737 mmHg 84%
    22:00 +4°C° 0.2 mm 3 mps 736 mmHg 85%
    23:00 +4°C° 0.9 mm 3 mps 736 mmHg 88%

    Day after tomorrow, 13 December, Friday

    Time Temperature Precipitation Wind Pressure Humidity
    00:00 +4°C° 0.9 mm 3 mps 736 mmHg 92%
    01:00 +3°C° 0.9 mm 3 mps 735 mmHg 95%
    02:00 +3°C° 0.9 mm 3 mps 735 mmHg 95%
    03:00 +3°C° 0.9 mm 3 mps 734 mmHg 95%
    04:00 +3°C° 0.9 mm 3 mps 734 mmHg 95%
    05:00 +3°C° 0.3 mm 3 mps 734 mmHg 96%
    06:00 +3°C° 0.3 mm 3 mps 733 mmHg 96%
    07:00 +4°C° 0.3 mm 2 mps 733 mmHg 96%
    08:00 +3°C° 0.4 mm 3 mps 733 mmHg 96%
    09:00 +3°C° 0.4 mm 3 mps 733 mmHg 96%
    10:00 +4°C° 0.4 mm 4 mps 732 mmHg 95%
    11:00 +4°C° 0.7 mm 4 mps 732 mmHg 94%
    12:00 +4°C° 0.7 mm 4 mps 731 mmHg 93%
    13:00 +4°C° 0.7 mm 4 mps 731 mmHg 92%
    14:00 +4°C° 0.1 mm 4 mps 731 mmHg 92%
    15:00 +4°C° 0.1 mm 3 mps 730 mmHg 92%
    16:00 +4°C° 0.1 mm 3 mps 730 mmHg 92%
    17:00 +4°C° 0.2 mm 3 mps 730 mmHg 91%
    18:00 +4°C° 0.2 mm 3 mps 730 mmHg 91%
    19:00 +4°C° 0.2 mm 3 mps 731 mmHg 90%
    20:00 +4°C° 0.1 mm 3 mps 731 mmHg 91%
    21:00 +5°C° 0.1 mm 2 mps 731 mmHg 91%
    22:00 +4°C° 0.1 mm 2 mps 731 mmHg 91%
    23:00 +4°C° 0 mm 2 mps 731 mmHg 91%

    14 December, Saturday

    Time Temperature Precipitation Wind Pressure Humidity
    00:00 +5°C° 0 mm 1 mps 731 mmHg 91%
    01:00 +5°C° 0 mm 1 mps 731 mmHg 91%
    02:00 +5°C° 0 mm 1 mps 731 mmHg 90%
    03:00 +5°C° 0 mm 1 mps 731 mmHg 89%
    04:00 +6°C° 0 mm 1 mps 732 mmHg 88%
    05:00 +5°C° 0 mm 1 mps 732 mmHg 88%
    06:00 +5°C° 0 mm 1 mps 732 mmHg 88%
    07:00 +5°C° 0 mm 1 mps 733 mmHg 88%
    08:00 +6°C° 0 mm 1 mps 733 mmHg 86%
    09:00 +6°C° 0 mm 1 mps 734 mmHg 84%
    10:00 +7°C° 0 mm 1 mps 734 mmHg 83%
    11:00 +7°C° 0.1 mm 1 mps 734 mmHg 84%
    12:00 +6°C° 0.1 mm 2 mps 735 mmHg 84%
    13:00 +6°C° 0.1 mm 2 mps 735 mmHg 85%
    14:00 +6°C° 0 mm 2 mps 735 mmHg 87%
    15:00 +5°C° 0 mm 3 mps 736 mmHg 88%
    16:00 +4°C° 0 mm 3 mps 737 mmHg 90%
    17:00 +4°C° 0 mm 3 mps 737 mmHg 92%
    18:00 +4°C° 0 mm 3 mps 738 mmHg 93%
    19:00 +4°C° 0 mm 3 mps 739 mmHg 95%
    20:00 +3°C° 0 mm 3 mps 739 mmHg 95%
    21:00 +4°C° 0 mm 2 mps 740 mmHg 95%
    22:00 +4°C° 0 mm 2 mps 741 mmHg 94%
    23:00 +3°C° 0 mm 3 mps 741 mmHg 94%

    15 December, Sunday

    Time Temperature Precipitation Wind Pressure Humidity
    00:00 +3°C° 0 mm 3 mps 741 mmHg 93%
    01:00 +3°C° 0 mm 3 mps 742 mmHg 93%
    02:00 +3°C° 0 mm 3 mps 742 mmHg 93%
    03:00 +3°C° 0 mm 3 mps 742 mmHg 94%
    04:00 +3°C° 0 mm 3 mps 743 mmHg 94%
    05:00 +3°C° 0 mm 3 mps 743 mmHg 95%
    06:00 +3°C° 0 mm 3 mps 744 mmHg 95%
    07:00 +3°C° 0 mm 3 mps 744 mmHg 96%
    08:00 +3°C° 0 mm 3 mps 744 mmHg 94%
    09:00 +4°C° 0 mm 3 mps 744 mmHg 92%
    10:00 +4°C° 0 mm 3 mps 744 mmHg 90%
    11:00 +5°C° 0 mm 3 mps 744 mmHg 87%
    12:00 +5°C° 0 mm 3 mps 743 mmHg 84%
    13:00 +7°C° 0 mm 3 mps 743 mmHg 81%
    14:00 +5°C° 0 mm 3 mps 743 mmHg 83%
    15:00 +5°C° 0 mm 3 mps 743 mmHg 85%
    16:00 +4°C° 0 mm 3 mps 744 mmHg 86%
    17:00 +6°C° 0 mm 2 mps 744 mmHg 86%
    18:00 +6°C° 0 mm 2 mps 745 mmHg 86%
    19:00 +6°C° 0 mm 2 mps 745 mmHg 85%
    20:00 +6°C° 0 mm 2 mps 746 mmHg 87%
    21:00 +5°C° 0 mm 2 mps 746 mmHg 88%
    22:00 +5°C° 0 mm 2 mps 747 mmHg 89%
    23:00 +5°C° 0 mm 2 mps 747 mmHg 89%

    16 December, Monday

    Time Temperature Precipitation Wind Pressure Humidity
    00:00 +5°C° 0 mm 2 mps 748 mmHg 89%
    01:00 +5°C° 0 mm 2 mps 748 mmHg 90%
    02:00 +5°C° 0 mm 2 mps 748 mmHg 89%
    03:00 +5°C° 0 mm 2 mps 748 mmHg 89%
    04:00 +5°C° 0 mm 2 mps 748 mmHg 89%
    05:00 +5°C° 0 mm 2 mps 749 mmHg 89%
    06:00 +5°C° 0 mm 2 mps 749 mmHg 89%
    07:00 +5°C° 0 mm 2 mps 749 mmHg 90%
    08:00 +6°C° 0 mm 2 mps 750 mmHg 89%
    09:00 +6°C° 0 mm 2 mps 750 mmHg 88%
    10:00 +7°C° 0 mm 2 mps 750 mmHg 88%
    11:00 +8°C° 0 mm 1 mps 750 mmHg 87%
    12:00 +8°C° 0 mm 1 mps 750 mmHg 87%
    13:00 +8°C° 0 mm 1 mps 750 mmHg 87%
    14:00 +8°C° 0 mm 1 mps 750 mmHg 88%
    15:00 +7°C° 0 mm 1 mps 750 mmHg 90%
    16:00 +7°C° 0 mm 1 mps 750 mmHg 91%
    17:00 +7°C° 0 mm 1 mps 750 mmHg 92%
    18:00 +7°C° 0 mm 1 mps 750 mmHg 92%
    19:00 +6°C° 0 mm 2 mps 750 mmHg 92%
    20:00 +6°C° 0 mm 2 mps 750 mmHg 91%
    21:00 +6°C° 0 mm 2 mps 750 mmHg 91%
    22:00 +6°C° 0 mm 2 mps 750 mmHg 90%
    23:00 +6°C° 0 mm 2 mps 750 mmHg 90%
    Show more